Weather History for Washington, MO

Change the Weather History Date:

Tuesday, March 11, 2014

  Actual Average (KSTL) Record (KSTL)
Temperature  
Mean Temperature 58 °F 44 °F  
Max Temperature 78 °F 54 °F 85 °F (1972)
Min Temperature 37 °F 35 °F 8 °F (1948)
Degree Days  
Heating Degree Days 8 21  
Month to date heating degree days 248  
Since 1 July heating degree days 3846  
Cooling Degree Days 0 0  
Month to date cooling degree days 0  
Year to date cooling degree days 0  
Growing Degree Days 8 (Base 50)    
Moisture  
Dew Point 42 °F    
Average Humidity 64    
Maximum Humidity 100    
Minimum Humidity 32    
Precipitation  
Precipitation 0.58 in 0.10 in 2.26 in (1977)
Month to date precipitation 1.01  
Year to date precipitation 5.65  
Snow  
Snow 0.00 in 0.10 in 4.80 in (2000)
Month to date snowfall 1.2  
Since 1 July snowfall 16.2  
Snow Depth -    
Sea Level Pressure  
Sea Level Pressure 29.58 in    
Wind  
Wind Speed 3 mph (SSW)    
Max Wind Speed 30 mph    
Max Gust Speed 33 mph    
Visibility 9 miles    
Events Rain , Thunderstorm    
T = Trace of Precipitation, MM = Missing Value Source: NWS Daily Summary

Daily Weather History Graph

Daily Weather History Graph

Search for Another Location

Airport:

Trip Planner

Search our weather history database for the weather conditions in past years. The results will help you decide how hot, cold, wet, or windy it might be!

Date:

Astronomy

Mar. 11, 2014 Rise Set
Actual Time 7:21 AM CDT 7:07 PM CDT
Civil Twilight 6:54 AM CDT 7:33 PM CDT
Nautical Twilight 6:24 AM CDT 8:04 PM CDT
Astronomical Twilight 5:53 AM CDT 8:35 PM CDT
Moon 2:46 PM CDT (3/11) 4:12 AM CDT (3/11)
Length of Visible Light 12h 38m
Length of Day
11h 45m
Waxing Gibbous, 78% of the Moon is Illuminated
Mar 11
Waxing Gibbous
Mar 16
Full
Mar 23
Last Quarter
Mar 30
New
Apr 7
First Quarter

Hourly Weather History & Observations

Time (CDT) Temp. Windchill Dew Point Humidity Pressure Visibility Wind Dir Wind Speed Gust Speed Precip Events Conditions
12:15 AM 44.6 °F - 33.8 °F 66% 29.72 in 10.0 mi Calm Calm - N/A   Clear
12:35 AM 44.6 °F - 33.8 °F 66% 29.71 in 10.0 mi Calm Calm - N/A   Clear
12:55 AM 44.6 °F - 35.6 °F 71% 29.70 in 10.0 mi Calm Calm - N/A   Clear
1:15 AM 42.8 °F - 35.6 °F 76% 29.70 in 10.0 mi Calm Calm - N/A   Clear
1:35 AM 41.0 °F - 33.8 °F 76% 29.70 in 10.0 mi Calm Calm - N/A   Clear
1:55 AM 41.0 °F - 33.8 °F 76% 29.70 in 10.0 mi Calm Calm - N/A   Clear
2:15 AM 42.8 °F - 33.8 °F 70% 29.69 in 10.0 mi Calm Calm - N/A   Clear
2:35 AM 41.0 °F - 33.8 °F 76% 29.69 in 10.0 mi Calm Calm - N/A   Clear
2:55 AM 46.4 °F - 32.0 °F 57% 29.69 in 10.0 mi Calm Calm - N/A   Clear
3:15 AM 41.0 °F - 32.0 °F 70% 29.69 in 10.0 mi Calm Calm - N/A   Clear
3:35 AM 41.0 °F - 32.0 °F 70% 29.68 in 10.0 mi Calm Calm - N/A   Clear
3:55 AM 41.0 °F - 33.8 °F 76% 29.68 in 10.0 mi Calm Calm - N/A   Clear
4:15 AM 39.2 °F - 35.6 °F 87% 29.67 in 10.0 mi Calm Calm - N/A   Clear
4:35 AM 41.0 °F - 35.6 °F 81% 29.67 in 10.0 mi Calm Calm - N/A   Clear
4:55 AM 44.6 °F - 33.8 °F 66% 29.67 in 10.0 mi Calm Calm - N/A   Clear
5:15 AM 41.0 °F - 33.8 °F 76% 29.67 in 10.0 mi Calm Calm - N/A   Clear
5:35 AM 48.2 °F - 32.0 °F 54% 29.67 in 10.0 mi Calm Calm - N/A   Clear
5:55 AM 41.0 °F - 33.8 °F 76% 29.67 in 10.0 mi Calm Calm - N/A   Clear
6:15 AM 41.0 °F - 32.0 °F 70% 29.67 in 10.0 mi Calm Calm - N/A   Clear
6:35 AM 37.4 °F - 32.0 °F 81% 29.67 in 10.0 mi Calm Calm - N/A   Clear
6:55 AM 37.4 °F - 32.0 °F 81% 29.67 in 10.0 mi Calm Calm - N/A   Clear
7:15 AM 37.4 °F - 32.0 °F 81% 29.67 in 10.0 mi Calm Calm - N/A   Clear
7:35 AM 37.4 °F - 32.0 °F 81% 29.66 in 10.0 mi Calm Calm - N/A   Clear
7:55 AM 37.4 °F - 32.0 °F 81% 29.66 in 10.0 mi Calm Calm - N/A   Clear
8:15 AM 37.4 °F - 35.6 °F 93% 29.66 in 10.0 mi Calm Calm - N/A   Clear
8:35 AM 41.0 °F - 37.4 °F 87% 29.66 in 10.0 mi Calm Calm - N/A   Clear
8:55 AM 42.8 °F - 39.2 °F 87% 29.66 in 10.0 mi Calm Calm - N/A   Clear
9:15 AM 50.0 °F - 41.0 °F 71% 29.66 in 10.0 mi Calm Calm - N/A   Clear
9:35 AM 57.2 °F - 41.0 °F 55% 29.65 in 10.0 mi Calm Calm - N/A   Clear
9:55 AM 59.0 °F - 41.0 °F 51% 29.65 in 10.0 mi Calm Calm - N/A   Clear
10:55 AM 66.2 °F - 44.6 °F 46% 29.63 in 10.0 mi South 3.5 mph - N/A   Clear
11:15 AM 68.0 °F - 46.4 °F 46% 29.62 in 10.0 mi South 5.8 mph - N/A   Clear
11:35 AM 68.0 °F - 48.2 °F 49% 29.61 in 10.0 mi West 4.6 mph - N/A   Clear
11:55 AM 71.6 °F - 48.2 °F 43% 29.61 in 10.0 mi WSW 4.6 mph - N/A   Clear
12:15 PM 71.6 °F - 48.2 °F 43% 29.60 in 10.0 mi Calm Calm - N/A   Clear
12:35 PM 73.4 °F - 48.2 °F 41% 29.59 in 10.0 mi SSW 5.8 mph - N/A   Clear
12:55 PM 75.2 °F - 46.4 °F 36% 29.57 in 10.0 mi WSW 8.1 mph - N/A   Clear
1:15 PM 75.2 °F - 46.4 °F 36% 29.56 in 10.0 mi SW 6.9 mph - N/A   Clear
1:35 PM 77.0 °F - 46.4 °F 34% 29.55 in 10.0 mi South 5.8 mph - N/A   Clear
2:15 PM 77.0 °F - 44.6 °F 32% 29.52 in 10.0 mi SW 10.4 mph 16.1 mph N/A   Scattered Clouds
2:35 PM 77.0 °F - 46.4 °F 34% 29.51 in 10.0 mi South 9.2 mph 16.1 mph N/A   Partly Cloudy
3:15 PM 78.8 °F - 46.4 °F 32% 29.49 in 10.0 mi SW 5.8 mph - N/A   Partly Cloudy
3:35 PM 78.8 °F - 46.4 °F 32% 29.48 in 10.0 mi SSW 11.5 mph - N/A   Mostly Cloudy
4:35 PM 78.8 °F - 46.4 °F 32% 29.46 in 10.0 mi South 10.4 mph - N/A   Mostly Cloudy
4:55 PM 78.8 °F - 48.2 °F 34% 29.45 in 10.0 mi SSW 10.4 mph - N/A   Mostly Cloudy
5:15 PM 77.0 °F - 46.4 °F 34% 29.45 in 10.0 mi SSW 6.9 mph - N/A   Partly Cloudy
5:55 PM 77.0 °F - 46.4 °F 34% 29.44 in 10.0 mi SSW 9.2 mph - N/A   Scattered Clouds
6:15 PM 75.2 °F - 48.2 °F 38% 29.44 in 10.0 mi South 6.9 mph - N/A   Scattered Clouds
6:35 PM 75.2 °F - 48.2 °F 38% 29.44 in 10.0 mi South 6.9 mph - N/A   Partly Cloudy
7:15 PM 71.6 °F - 48.2 °F 43% 29.44 in 10.0 mi SE 5.8 mph - N/A   Clear
7:35 PM 73.4 °F - 48.2 °F 41% 29.43 in 10.0 mi SE 4.6 mph - N/A   Scattered Clouds
7:55 PM 71.6 °F - 50.0 °F 46% 29.43 in 10.0 mi SSE 5.8 mph - N/A   Mostly Cloudy
8:15 PM 69.8 °F - 48.2 °F 46% 29.43 in 10.0 mi SSE 5.8 mph - N/A   Mostly Cloudy
8:35 PM 68.0 °F - 50.0 °F 52% 29.43 in 10.0 mi SSE 5.8 mph - N/A Thunderstorm Thunderstorm
8:55 PM 66.2 °F - 55.4 °F 68% 29.44 in 1.8 mi SW 10.4 mph 26.5 mph 0.16 in Rain , Thunderstorm Heavy Thunderstorms and Rain
9:15 PM 66.2 °F - 57.2 °F 73% 29.45 in 5.0 mi NE 4.6 mph 18.4 mph N/A Rain , Thunderstorm Light Thunderstorms and Rain
9:35 PM 59.0 °F - 50.0 °F 72% 29.49 in 5.0 mi North 18.4 mph 31.1 mph 0.03 in Rain , Thunderstorm Light Thunderstorms and Rain
9:55 PM 53.6 °F - 53.6 °F 100% 29.49 in 2.5 mi North 19.6 mph 24.2 mph 0.34 in Rain Heavy Rain
10:15 PM 51.8 °F - 51.8 °F 100% 29.50 in 3.0 mi North 13.8 mph 21.9 mph 0.02 in Rain , Thunderstorm Light Rain
10:35 PM 50.0 °F - 50.0 °F 100% 29.49 in 3.0 mi North 10.4 mph 23.0 mph 0.03 in Rain Light Rain
10:55 PM 48.2 °F - 48.2 °F 100% 29.49 in 3.0 mi North 11.5 mph 23.0 mph 0.03 in Rain Light Rain
11:15 PM 48.2 °F - 48.2 °F 100% 29.49 in 3.0 mi NNE 9.2 mph 19.6 mph N/A   Overcast
11:35 PM 46.4 °F 42.9 °F 46.4 °F 100% 29.50 in 2.0 mi North 6.9 mph 17.3 mph 0.04 in Rain Light Rain
11:55 PM 46.4 °F 37.2 °F 46.4 °F 100% 29.55 in 3.0 mi NW 29.9 mph 33.4 mph 0.05 in   Overcast